Latest Weather Observations for Tarcoola

IDS60801

Issued at 9:05 am CDT Sunday 26 October 2014 (issued every 30 minutes, with the page automatically refreshed every 10 minutes)

About weather observations | Map of weather stations | Latest weather observations for SA | Other Formats
Station Details ID: 016098 Name: TARCOOLA AERO Lat: -30.71 Lon: 134.58 Height: 123.0 m
Data from the previous 72 hours. | See also: Recent months at Tarcoola
Date/Time
CDT
Temp
°C
App
Temp
°C
Dew
Point
Rel
Hum
%
Delta-T
°C
Wind Press
QNH
hPa
Press
MSL
hPa
Rain
since 9 am
mm
Dir
 
Spd
km/h
Gust
km/h
Spd
kts
Gust
kts
26/09:00am 28.1 25.9 10.8 34 9.9 NE 13 19 7 10 1013.5 1013.1 0.0
26/08:30am 29.0 26.7 7.6 26 11.6 NW 9 13 5 7 1014.2 1013.8 0.0
26/08:00am 28.6 26.2 7.2 26 11.5 WSW 9 15 5 8 1013.6 1013.2 0.0
26/07:30am 28.6 26.0 7.8 27 11.3 WSW 11 15 6 8 1013.1 1012.7 0.0
26/07:00am 29.7 25.9 7.6 25 12.1 E 17 20 9 11 1011.7 1011.4 0.0
26/06:30am 29.2 26.1 7.2 25 11.9 NE 13 17 7 9 1012.7 1012.3 0.0
26/06:00am 29.6 27.6 6.9 24 12.2 WNW 7 11 4 6 1012.4 1012.0 0.0
26/05:30am 30.4 23.8 7.6 24 12.5 WSW 32 44 17 24 1012.9 1012.5 0.0
26/05:24am 31.0 24.2 6.8 22 13.1 WSW 32 37 17 20 1013.1 1012.7 0.0
26/05:00am 30.6 27.1 3.6 18 13.8 WSW 11 15 6 8 1011.5 1011.2 0.0
26/04:30am 30.5 25.3 3.5 18 13.8 N 20 39 11 21 1012.0 1011.6 0.0
26/04:00am 30.7 25.7 3.7 18 13.9 N 19 24 10 13 1011.0 1010.7 0.0
26/03:30am 29.6 25.6 2.8 18 13.5 NNE 13 20 7 11 1010.9 1010.6 0.0
26/03:00am 29.8 24.8 3.7 19 13.3 ENE 19 24 10 13 1011.4 1011.1 0.0
26/02:30am 27.4 23.7 2.5 20 12.3 ENE 11 15 6 8 1012.0 1011.6 0.0
26/02:00am 27.5 24.2 2.6 20 12.3 NNE 9 13 5 7 1012.7 1012.3 0.0
26/01:30am 28.4 24.4 2.6 19 12.8 ENE 13 17 7 9 1012.8 1012.4 0.0
26/01:00am 28.6 25.0 2.7 19 12.9 ENE 11 15 6 8 1013.2 1012.8 0.0
26/12:30am 28.4 24.7 2.6 19 12.8 E 11 13 6 7 1013.4 1013.0 0.0
26/12:00am 29.5 25.1 2.7 18 13.4 E 15 19 8 10 1013.4 1013.0 0.0
 
Date/Time
CDT
Temp
°C
App
Temp
°C
Dew
Point
Rel
Hum
%
Delta-T
°C
Wind Press
QNH
hPa
Press
MSL
hPa
Rain
since 9 am
mm
Dir
 
Spd
km/h
Gust
km/h
Spd
kts
Gust
kts
25/11:30pm 29.3 25.2 2.5 18 13.4 E 13 17 7 9 1013.6 1013.2 0.0
25/11:00pm 29.9 25.2 3.0 18 13.6 E 17 20 9 11 1013.7 1013.3 0.0
25/10:30pm 30.5 25.7 2.7 17 14.0 E 17 20 9 11 1014.1 1013.7 0.0
25/10:00pm 31.3 26.5 2.5 16 14.6 ESE 17 24 9 13 1014.2 1013.8 0.0
25/09:30pm 31.9 27.2 3.0 16 14.8 ESE 17 22 9 12 1014.2 1013.8 0.0
25/09:00pm 31.5 27.9 2.7 16 14.6 ESE 11 17 6 9 1014.2 1013.8 0.0
25/08:30pm 32.6 28.4 1.7 14 15.5 ESE 13 15 7 8 1013.8 1013.4 0.0
25/08:00pm 33.5 31.9 2.4 14 15.9 CALM 0 2 0 1 1013.7 1013.3 0.0
25/07:30pm 35.6 33.7 3.0 13 17.0 WNW 2 7 1 4 1013.7 1013.3 0.0
25/07:00pm 36.2 33.4 2.3 12 17.6 W 6 9 3 5 1013.4 1013.0 0.0
25/06:30pm 36.8 33.6 2.8 12 17.8 SSW 9 13 5 7 1013.4 1013.0 0.0
25/06:00pm 36.1 32.6 3.3 13 17.3 SSW 11 15 6 8 1013.2 1012.8 0.0
25/05:30pm 37.5 34.7 3.3 12 18.1 WSW 7 13 4 7 1013.6 1013.2 0.0
25/05:00pm 36.2 32.7 3.4 13 17.3 SE 11 15 6 8 1013.5 1013.1 0.0
25/04:30pm 36.8 33.6 2.8 12 17.8 ENE 9 15 5 8 1013.6 1013.2 0.0
25/04:00pm 36.7 33.8 2.7 12 17.8 N 7 15 4 8 1013.9 1013.5 0.0
25/03:30pm 36.1 33.3 3.3 13 17.3 ENE 7 13 4 7 1014.6 1014.2 0.0
25/03:00pm 35.8 32.6 3.1 13 17.1 SSE 9 13 5 7 1015.2 1014.8 0.0
25/02:30pm 36.2 32.3 3.4 13 17.3 SE 13 22 7 12 1015.8 1015.5 0.0
25/02:00pm 34.8 31.1 2.3 13 16.7 S 11 20 6 11 1016.4 1016.1 0.0
25/01:30pm 34.0 30.4 2.8 14 16.1 SSW 11 17 6 9 1016.7 1016.4 0.0
25/01:00pm 33.4 30.1 2.3 14 15.9 ESE 9 20 5 11 1016.7 1016.4 0.0
25/12:30pm 32.5 29.1 1.6 14 15.5 SE 9 19 5 10 1017.0 1016.7 0.0
25/12:00pm 32.5 28.1 2.5 15 15.2 S 15 20 8 11 1017.4 1017.1 0.0
25/11:30am 31.5 27.6 3.5 17 14.4 SSE 13 22 7 12 1017.8 1017.5 0.0
25/11:00am 30.2 26.1 2.5 17 13.9 SSE 13 20 7 11 1018.2 1017.9 0.0
25/10:30am 29.1 25.4 4.6 21 12.6 ESE 13 20 7 11 1018.4 1018.1 0.0
25/10:00am 27.1 23.5 4.8 24 11.4 SE 13 20 7 11 1018.6 1018.3 0.0
25/09:30am 26.4 22.2 5.9 27 10.6 SSE 17 22 9 12 1018.6 1018.3 0.0
25/09:00am 24.2 20.4 6.0 31 9.3 SSE 15 20 8 11 1018.9 1018.6 0.0
25/08:30am 22.1 18.3 7.5 39 7.6 S 17 20 9 11 1018.7 1018.4 0.0
25/08:00am 19.6 17.1 9.8 53 5.3 S 13 19 7 10 1018.7 1018.4 0.0
25/07:30am 18.2 15.4 10.1 59 4.3 SSW 15 20 8 11 1018.6 1018.3 0.0
25/07:00am 17.6 15.2 10.0 61 4.0 SSW 13 17 7 9 1018.2 1017.9 0.0
25/06:30am 18.1 15.7 10.0 59 4.3 SSW 13 19 7 10 1017.8 1017.5 0.0
25/06:00am 18.8 15.5 9.6 55 4.9 SW 17 20 9 11 1017.7 1017.4 0.0
25/05:30am 19.5 16.2 9.4 52 5.4 SSW 17 20 9 11 1016.7 1016.4 0.0
25/05:00am 19.5 16.9 9.4 52 5.4 S 13 17 7 9 1016.5 1016.2 0.0
25/04:30am 19.5 17.7 9.4 52 5.4 S 9 11 5 6 1017.0 1016.7 0.0
25/04:00am 19.6 17.7 9.2 51 5.5 S 9 17 5 9 1016.6 1016.3 0.0
25/03:30am 19.5 16.2 9.7 53 5.2 SW 17 24 9 13 1016.6 1016.3 0.0
25/03:00am 19.9 16.7 9.8 52 5.4 SW 17 26 9 14 1016.9 1016.6 0.0
25/02:30am 20.6 17.2 9.2 48 6.1 SW 17 22 9 12 1017.2 1016.9 0.0
25/02:00am 21.3 18.2 8.9 45 6.6 SW 15 20 8 11 1017.3 1017.0 0.0
25/01:30am 22.3 18.6 8.1 40 7.5 SW 17 20 9 11 1017.1 1016.8 0.0
25/01:00am 22.9 18.5 6.6 35 8.4 SSW 19 24 10 13 1017.2 1016.9 0.0
25/12:30am 23.8 19.2 5.7 31 9.2 SSW 19 24 10 13 1017.3 1017.0 0.0
25/12:00am 24.5 20.2 5.3 29 9.7 SSW 17 22 9 12 1017.4 1017.1 0.0
 
Date/Time
CDT
Temp
°C
App
Temp
°C
Dew
Point
Rel
Hum
%
Delta-T
°C
Wind Press
QNH
hPa
Press
MSL
hPa
Rain
since 9 am
mm
Dir
 
Spd
km/h
Gust
km/h
Spd
kts
Gust
kts
24/11:30pm 24.8 22.2 6.1 30 9.6 SSW 9 11 5 6 1017.5 1017.2 0.0
24/11:00pm 25.2 23.9 5.9 29 10.0 S 2 9 1 5 1017.8 1017.5 0.0
24/10:30pm 25.9 21.4 7.0 30 10.0 SSW 20 32 11 17 1016.3 1016.0 0.0
24/10:00pm 26.4 21.1 8.4 32 9.8 SW 26 35 14 19 1015.6 1015.3 0.0
24/09:30pm 27.6 22.2 8.0 29 10.6 SSW 26 35 14 19 1015.1 1014.7 0.0
24/09:00pm 29.4 22.9 6.7 24 12.2 SW 30 41 16 22 1014.3 1013.9 0.0
24/08:30pm 31.2 24.4 7.0 22 13.2 SW 32 44 17 24 1013.5 1013.1 0.0
24/08:00pm 33.3 27.4 7.3 20 14.4 SSW 28 39 15 21 1012.9 1012.5 0.0
24/07:30pm 35.0 28.8 6.3 17 15.8 SSW 28 37 15 20 1012.1 1011.7 0.0
24/07:00pm 38.3 32.2 2.7 11 18.8 WSW 24 32 13 17 1011.4 1011.1 0.0
24/06:30pm 39.3 33.8 2.1 10 19.6 WSW 20 32 11 17 1011.0 1010.7 0.0
24/06:00pm 39.6 35.1 2.3 10 19.7 WSW 15 24 8 13 1010.8 1010.5 0.0
24/05:30pm 40.2 35.4 2.8 10 20.0 WSW 17 30 9 16 1010.8 1010.5 0.0
24/05:00pm 39.5 35.4 2.2 10 19.7 SW 13 24 7 13 1010.7 1010.4 0.0
24/04:30pm 39.5 34.6 2.2 10 19.7 WSW 17 24 9 13 1010.8 1010.5 0.0
24/04:00pm 39.8 34.4 2.5 10 19.8 WNW 20 32 11 17 1011.0 1010.7 0.0
24/03:30pm 39.9 32.4 1.1 9 20.2 WNW 30 44 16 24 1011.5 1011.2 0.0
24/03:00pm 40.6 34.2 3.1 10 20.2 WSW 26 35 14 19 1011.7 1011.4 0.0
24/02:30pm 40.4 36.4 2.9 10 20.1 WNW 13 30 7 16 1012.2 1011.8 0.0
24/02:00pm 39.9 34.1 2.5 10 19.9 WNW 22 30 12 16 1012.6 1012.2 0.0
24/01:30pm 38.4 35.2 2.8 11 18.8 N 9 19 5 10 1012.8 1012.4 0.0
24/01:00pm 38.3 33.9 2.7 11 18.8 WSW 15 28 8 15 1013.1 1012.7 0.0
24/12:30pm 37.5 32.0 2.1 11 18.4 WSW 20 30 11 16 1013.4 1013.0 0.0
24/12:00pm 38.1 33.3 2.5 11 18.7 W 17 28 9 15 1013.7 1013.3 0.0
24/11:30am 37.5 31.9 3.3 12 18.1 NNW 22 33 12 18 1014.1 1013.7 0.0
24/11:00am 36.5 31.5 3.7 13 17.4 N 19 32 10 17 1014.3 1013.9 0.0
24/10:30am 35.5 30.2 2.9 13 17.0 N 20 28 11 15 1014.3 1013.9 0.0
24/10:00am 34.1 29.3 2.8 14 16.2 NNE 17 28 9 15 1014.2 1013.8 0.0
24/09:30am 32.5 28.6 3.5 16 15.0 N 13 22 7 12 1014.2 1013.8 0.0
24/09:00am 30.0 26.8 3.1 18 13.6 NE 9 13 5 7 1013.9 1013.5 0.0
24/08:30am 27.6 25.8 3.3 21 12.2 ENE 2 6 1 3 1013.8 1013.4 0.0
24/08:00am 27.0 25.5 2.8 21 12.0 CALM 0 0 0 0 1013.8 1013.4 0.0
24/07:30am 26.5 24.6 3.1 22 11.6 NE 2 7 1 4 1013.7 1013.3 0.0
24/07:00am 25.8 22.5 2.5 22 11.4 NNE 9 13 5 7 1013.3 1012.9 0.0
24/06:30am 27.1 22.2 2.2 20 12.2 NE 17 20 9 11 1012.8 1012.4 0.0
24/06:00am 27.8 21.8 1.3 18 12.8 NE 22 28 12 15 1012.6 1012.2 0.0
24/05:30am 27.7 23.2 2.0 19 12.6 NE 15 24 8 13 1012.6 1012.2 0.0
24/05:00am 27.5 20.9 1.8 19 12.5 NE 26 33 14 18 1013.1 1012.7 0.0
24/04:30am 27.4 22.2 2.5 20 12.3 NNE 19 26 10 14 1012.9 1012.5 0.0
24/04:00am 27.2 21.9 3.0 21 12.0 ENE 20 30 11 16 1013.1 1012.7 0.0
24/03:30am 23.6 20.1 3.5 27 9.8 ENE 11 13 6 7 1013.2 1012.8 0.0
24/03:00am 23.1 20.5 3.1 27 9.7 E 6 9 3 5 1013.9 1013.5 0.0
24/02:30am 23.7 22.2 3.1 26 10.0 CALM 0 2 0 1 1014.6 1014.2 0.0
24/02:00am 24.4 22.9 3.1 25 10.4 CALM 0 0 0 0 1014.6 1014.2 0.0
24/01:30am 25.2 23.7 3.2 24 10.8 CALM 0 0 0 0 1014.9 1014.5 0.0
24/01:00am 25.9 23.4 3.8 24 11.0 ESE 6 15 3 8 1015.3 1014.9 0.0
24/12:30am 25.9 23.1 3.2 23 11.2 S 7 9 4 5 1014.7 1014.3 0.0
24/12:00am 26.9 25.1 3.4 22 11.7 NW 2 7 1 4 1015.5 1015.2 0.0
 
Date/Time
CDT
Temp
°C
App
Temp
°C
Dew
Point
Rel
Hum
%
Delta-T
°C
Wind Press
QNH
hPa
Press
MSL
hPa
Rain
since 9 am
mm
Dir
 
Spd
km/h
Gust
km/h
Spd
kts
Gust
kts
23/11:30pm 27.5 24.9 3.2 21 12.1 SW 6 11 3 6 1015.5 1015.2 0.0
23/11:00pm 29.1 26.1 3.9 20 12.9 SSE 9 13 5 7 1015.2 1014.8 0.0
23/10:30pm 29.6 26.1 3.5 19 13.3 S 11 15 6 8 1015.4 1015.0 0.0
23/10:00pm 30.5 26.9 2.7 17 14.0 S 11 13 6 7 1015.2 1014.8 0.0
23/09:30pm 31.3 27.8 3.4 17 14.3 S 11 15 6 8 1014.9 1014.5 0.0
23/09:00pm 31.9 27.2 3.0 16 14.8 S 17 20 9 11 1014.6 1014.2 0.0
23/08:30pm 32.5 27.9 3.5 16 15.0 S 17 24 9 13 1014.2 1013.8 0.0
23/08:00pm 32.9 28.2 2.9 15 15.4 S 17 22 9 12 1013.8 1013.4 0.0
23/07:30pm 33.4 29.1 3.3 15 15.6 SW 15 20 8 11 1013.9 1013.5 0.0
23/07:00pm 34.1 29.3 2.8 14 16.2 SW 17 24 9 13 1013.4 1013.0 0.0
23/06:30pm 35.0 31.5 3.5 14 16.5 WSW 11 19 6 10 1013.3 1012.9 0.0
23/06:00pm 34.8 30.5 3.4 14 16.4 SW 15 26 8 14 1013.2 1012.8 0.0
23/05:30pm 35.5 32.1 3.9 14 16.7 W 11 20 6 11 1013.2 1012.8 0.0
23/05:00pm 35.5 32.5 3.9 14 16.7 NW 9 13 5 7 1013.2 1012.8 0.0
23/04:30pm 35.6 30.7 4.0 14 16.8 W 19 30 10 16 1013.2 1012.8 0.0
23/04:00pm 35.2 31.0 3.7 14 16.6 SW 15 24 8 13 1013.6 1013.2 0.0
23/03:30pm 34.7 29.6 3.3 14 16.4 W 19 22 10 12 1013.8 1013.4 0.0
23/03:00pm 35.2 31.9 4.7 15 16.3 NNW 11 19 6 10 1014.0 1013.6 0.0
23/02:30pm 34.7 31.9 5.2 16 15.9 N 9 13 5 7 1014.4 1014.0 0.0
23/02:00pm 33.6 30.8 5.2 17 15.2 NNW 9 13 5 7 1014.7 1014.3 0.0
23/01:30pm 32.8 30.8 6.2 19 14.4 NNW 6 11 3 6 1015.0 1014.6 0.0
23/01:00pm 32.2 30.2 6.4 20 14.0 NE 6 11 3 6 1015.5 1015.2 0.0
23/12:30pm 31.2 28.8 7.0 22 13.2 E 9 15 5 8 1016.0 1015.7 0.0
23/12:00pm 29.7 27.1 7.6 25 12.0 ENE 11 22 6 12 1016.4 1016.1 0.0
23/11:30am 28.3 26.2 8.1 28 11.0 E 9 17 5 9 1016.8 1016.5 0.0
23/11:00am 27.0 24.8 9.4 33 9.8 ESE 11 17 6 9 1017.1 1016.8 0.0
23/10:30am 25.3 23.6 10.0 38 8.5 ESE 9 13 5 7 1017.4 1017.1 0.0
23/10:00am 23.5 21.6 10.6 44 7.2 E 11 17 6 9 1017.4 1017.1 0.0
23/09:30am 21.8 20.3 10.6 49 6.2 E 9 17 5 9 1017.8 1017.5 0.0

Other Formats:

Comma delimited format used in spreadsheet applications
http://www.bom.gov.au/fwo/IDS60801/IDS60801.94655.axf

JavaScript Object Notation format (JSON) in row-major order
http://www.bom.gov.au/fwo/IDS60801/IDS60801.94655.json